Location: Norton
(51.3000°N, 0.8167°E)
Time: 10:43:09
(UTC+00:00)

Cosmos 1821 Rocket - Pass Details

Date: 03 March 2021
Orbit: 945 x 1005 km, 82.9° (Epoch: 16 April)

Event Time Altitude Azimuth Distance (km) Brightness Sun altitude
Exits shadow 20:41:57 76° 71° (ENE) 1,004 3.8 -28.3°
Drops below altitude 10° 20:47:53 10° 12° (NNE) 2,703 6.5 -29.1°
Sets 20:50:22 0° 12° (NNE) 3,646 7.2 -29.4°
